星链-4787 (STARLINK-4787 )

导读

STARLINK-4787是美国SpaceX公司星链星座的成员卫星,于2022年9月24日发射入轨。星链项目旨在构建全球低轨宽带互联网星座,为全球提供覆盖的高速网络服务。该卫星采用平板设计,配备氪工质霍尔推进器,具备自主避撞能力,设计寿命5至7年,退役后将主动离轨再入大气层烧毁。

Basic Information
目录编号:
53904
目录名称:
STARLINK-4787
国际标识:
2022-119U
轨道中心:
EARTH
卫星名称:
星链-4787
卫星全名:
星链-4787 (STARLINK-4787 )
卫星状态:
在轨 (已飞行1449 天)
发射日期:
2022-09-24 UTC
国别 :
美国 (US)
星等 :
--
This satellite is enrolled in the Space Conjunction Data Service (SCDS) and the current flight risk assessment level is: No High Risk
Orbit Information
数据来源 国际轨道数据 AOE轨道数据
星历时间 2026-09-12T10:41:26+0800
9小时前
查看轨道信息
2026-09-06T22:00:00+0800
5天前
查看轨道信息
半长轴 6840.852km 6840.805km
偏心率 0.0001509 0.0001504
轨道倾角 53.160° 53.159°
近地点辐角 84.554° 79.948°
升交点赤经 195.010° 220.858°
平近点角 275.563° 323.188°
近地点 461.682km 461.639km
远地点 463.748km 463.697km
周期 93.848分钟 93.847分钟
每日圈数 15.343963 15.34412
Detailed Information
固有亮度:
5
最大亮度:
2.5
卫星平台:
Starlink v1.5
覆盖范围:
全球
运营商:
太空探索技术公司
运营商所在国:
美国
制造商(研发单位):
太空探索技术公司
制造商所在国:
美国
使用方式:
暂无
Satellite Introduction
星链(Starlink)计划是由太空探索技术公司(SpaceX)提出的一个巨型低轨卫星互联网星座项目,计划在2019年至2024年间在太空搭建由约1.2万颗卫星组成的“星链”网络,其中1584颗将部署在地球上空550千米处的近地轨道,并从2020年开始工作。该卫星仍在工作。
2D Orbit Map
3D Orbit Map
Orbit Altitude Analysis Chart
Orbit Inclination Analysis Chart
Orbit Comprehensive Analysis Chart
View Comprehensive Chart
Conjunction Data List
Event ID Objects TCA Miss Dist (km) Collision Risk Probability Collision Risk Index (CRI) Action
CDM_260912-152104-299205-390421
2026-09-12T
15:21:59+0000
2.875 km
极远距离
1.399169E-6 低风险 0.38
Miss Distance Evolution Trend with All Objects
Collision Probability Evolution Trend with All Objects